Bookmark and Share
Track history (hours):
 

Erria Swan

Last reported at 2014-Apr-20 12:21 UTC. Time now 2014-Apr-20 13:19 UTC.
Position N 51°53' E 004°18'.

Length 129 m; draft 7.8 m.

Type: Tanker. MMSI: 256986000.

NotesDate/timePositionNaut miles runAvg speedWind from/ knotsBaromVisibWave heightAir tempDewpointWater temp
2014-Apr-20 12:21N 51°53' E 004°18'0 0.0
2014-Apr-20 10:33N 51°53' E 004°18'0 0.0
2014-Apr-20 09:09N 51°53' E 004°18'0 0.0
2014-Apr-20 08:30N 51°53' E 004°18'0 0.0
2014-Apr-20 07:30N 51°53' E 004°18'0 0.0
2014-Apr-20 06:30N 51°53' E 004°18'0 0.0
2014-Apr-20 05:30N 51°53' E 004°18'0 0.0
2014-Apr-20 04:30N 51°53' E 004°18'0 0.0
2014-Apr-20 03:30N 51°53' E 004°18'0 0.0
2014-Apr-20 02:24N 51°53' E 004°18'0 0.0
2014-Apr-20 01:30N 51°53' E 004°18'0 0.0
2014-Apr-20 00:24N 51°53' E 004°18'0 0.0
2014-Apr-19 23:33N 51°53' E 004°18'0 0.0
2014-Apr-19 22:30N 51°53' E 004°18'0 0.0
2014-Apr-19 21:30N 51°53' E 004°18'0 0.0
2014-Apr-19 20:21N 51°53' E 004°18'0 0.0
2014-Apr-19 19:33N 51°53' E 004°18'0 0.0
2014-Apr-19 18:30N 51°53' E 004°18'0 0.0
2014-Apr-19 17:33N 51°53' E 004°18'0 0.0
2014-Apr-19 16:24N 51°53' E 004°18'0 0.0
2014-Apr-19 15:24N 51°53' E 004°18'0 0.0
2014-Apr-19 14:33N 51°53' E 004°18'0 0.0
2014-Apr-19 13:21N 51°53' E 004°18'0 0.0
2014-Apr-19 12:12N 51°53' E 004°18'0 0.0
2014-Apr-19 11:30N 51°53' E 004°18'0 0.0
2014-Apr-19 10:34N 51°53' E 004°18'4 3.6
2014-Apr-19 09:33N 51°55' E 004°14'8 8.2
2014-Apr-19 08:33N 51°59' E 004°02'9 9.4
2014-Apr-19 07:33N 51°60' E 003°47'8 7.5
2014-Apr-19 06:32N 51°56' E 003°36'6 5.7
2014-Apr-19 05:28N 51°55' E 003°27'4 4.6
2014-Apr-19 04:33N 51°52' E 003°23'7 6.0
2014-Apr-19 03:27N 51°47' E 003°16'6 6.8
2014-Apr-19 02:33N 51°41' E 003°18'1010.4
2014-Apr-19 01:33N 51°32' E 003°26'9 8.9
2014-Apr-19 00:34N 51°26' E 003°37'8 7.9
2014-Apr-18 23:33N 51°21' E 003°47'2 2.2
2014-Apr-18 22:33N 51°20' E 003°49'5 4.9
2014-Apr-18 21:34N 51°15' E 003°49'6 5.8
2014-Apr-18 20:34N 51°09' E 003°47'4 0.4
2014-Apr-18 10:32N 51°05' E 003°44'0 0.0
2014-Apr-18 09:33N 51°05' E 003°44'0 0.0
2014-Apr-18 08:28N 51°05' E 003°44'0 0.0
2014-Apr-18 07:33N 51°05' E 003°44'0 0.0
2014-Apr-18 06:32N 51°05' E 003°44'0 0.0
2014-Apr-18 05:34N 51°05' E 003°44'0 0.0
2014-Apr-18 04:33N 51°05' E 003°44'0 0.0
2014-Apr-18 03:30N 51°05' E 003°44'0 0.0
2014-Apr-18 02:34N 51°05' E 003°44'0 0.0
2014-Apr-18 01:32N 51°05' E 003°44'0 0.0
2014-Apr-18 00:33N 51°05' E 003°44'0 0.0
2014-Apr-17 23:31N 51°05' E 003°44'0 0.0
2014-Apr-17 22:31N 51°05' E 003°44'0 0.0
2014-Apr-17 21:33N 51°05' E 003°44'0 0.0
2014-Apr-17 20:33N 51°05' E 003°44'0 0.0
2014-Apr-17 19:27N 51°05' E 003°44'0 0.0
2014-Apr-17 18:30N 51°05' E 003°44'0 0.0
2014-Apr-17 17:33N 51°05' E 003°44'0 0.0
2014-Apr-17 16:31N 51°05' E 003°44'0 0.0
2014-Apr-17 15:28N 51°05' E 003°44'0 0.0
2014-Apr-17 14:28N 51°05' E 003°44'0 0.0
2014-Apr-17 13:28N 51°05' E 003°44'0 0.0
2014-Apr-17 12:25N 51°05' E 003°44'0 0.0
2014-Apr-17 11:29N 51°05' E 003°44'0 0.0
2014-Apr-17 10:33N 51°05' E 003°44'0 0.0
2014-Apr-17 09:32N 51°05' E 003°44'0 0.0
2014-Apr-17 08:32N 51°05' E 003°44'0 0.0
2014-Apr-17 07:33N 51°05' E 003°44'0 0.0
2014-Apr-17 06:33N 51°05' E 003°44'0 0.0
2014-Apr-17 05:33N 51°05' E 003°44'0 0.0
2014-Apr-17 04:31N 51°05' E 003°44'0 0.0
2014-Apr-17 03:33N 51°05' E 003°44'0 0.0
2014-Apr-17 02:33N 51°05' E 003°44'0 0.0
2014-Apr-17 01:33N 51°05' E 003°44'0 0.0
2014-Apr-17 00:33N 51°05' E 003°44'0 0.0
2014-Apr-16 23:33N 51°05' E 003°44'0 0.0
2014-Apr-16 22:28N 51°05' E 003°44'0 0.0
2014-Apr-16 21:33N 51°05' E 003°44'0 0.0
2014-Apr-16 20:33N 51°05' E 003°44'0 0.0
2014-Apr-16 19:33N 51°05' E 003°44'0 0.0
2014-Apr-16 18:34N 51°05' E 003°44'5 4.7
2014-Apr-16 17:34N 51°09' E 003°47'7 7.5
2014-Apr-16 16:34N 51°17' E 003°50'3 3.2
2014-Apr-16 15:34N 51°20' E 003°49'4 4.1
2014-Apr-16 14:33N 51°22' E 003°44'7 6.8
2014-Apr-16 13:33N 51°26' E 003°34'1110.9
2014-Apr-16 12:33N 51°24' E 003°17'1313.4
2014-Apr-16 11:33N 51°22' E 002°56'10 9.5
2014-Apr-16 10:33N 51°22' E 002°40'5 5.2
2014-Apr-16 09:33N 51°22' E 002°32'2 2.1
2014-Apr-16 08:33N 51°22' E 002°29'1 0.8
2014-Apr-16 07:33N 51°21' E 002°28'1 1.1
2014-Apr-16 06:33N 51°21' E 002°26'9 8.6
2014-Apr-16 05:33N 51°16' E 002°14'1110.8
2014-Apr-16 04:33N 51°11' E 001°59'1111.5
2014-Apr-16 03:33N 51°05' E 001°44'1312.6
2014-Apr-16 02:33N 50°55' E 001°30'2612.4
2014-Apr-16 00:25N 50°33' E 001°08'1511.7
2014-Apr-15 23:10N 50°27' E 000°47'912.2
2014-Apr-15 22:25N 50°25' E 000°33'5413.1
2014-Apr-15 18:20N 50°11' W 000°48'911.5
2014-Apr-15 17:33N 50°08' W 001°02'1010.1
2014-Apr-15 16:33N 50°06' W 001°17'  

Dump ship's entire track history

sailing weather and tide predictions

Erria Swan — 9HHJ9 — position and weather